Regional Weather Roundup
Issued by NWS

Home | Current Version | Previous Version | Text Only | Print | Product List | Glossary On
Versions: 1 2 3 4 5 6 7 8 9 10 11 12 13 14 15 16 17 18 19 20 21 22 23 24 25 26 27 28 29 30 31 32 33 34 35 36 37 38 39 40 41 42 43 44 45 46 47 48 49 50
000
ASUS43 KDTX 162310
RWRMI
MICHIGAN HOURLY REGIONAL WEATHER ROUNDUP
NATIONAL WEATHER SERVICE DETROIT/PONTIAC MI
600 PM EST TUE JAN 16 2018

NOTE: "FAIR" INDICATES FEW OR NO CLOUDS BELOW 12,000 FEET WITH NO
SIGNIFICANT WEATHER AND/OR OBSTRUCTION TO VISIBILITY.

MIZ047>049-052>055-059>063-066>070-074>076-081>083-170000-
SOUTHEAST LOWER MICHIGAN

CITY           SKY/WX    TMP DP  RH WIND       PRES   REMARKS
ADRIAN         FAIR       4  -1  80 W7        30.44R WCI  -8
ALMA           CLOUDY    17  11  78 CALM      30.41R
ANN ARBOR      FAIR       6   3  87 SW7       30.41R WCI  -6
BAD AXE        FLURRIES  18  15  86 N10       30.37R WCI   6
CARO           LGT SNOW  19  15  88 N3        30.39R
DETROIT CITY   CLOUDY    13   8  81 SW8       30.41R WCI   2
DETROIT        CLOUDY    10   4  76 SW10      30.43R WCI  -4
FLINT          LGT SNOW  16  12  84 W6        30.40R FOG     WCI   7
GROSSE ILE     CLOUDY     8   3  79 W8        30.43R WCI  -5
HILLSDALE      FLURRIES   5   0  78 W3        30.40R
HOWELL         LGT SNOW  11   9  89 W8        30.40R WCI   0

CITY           SKY/WX    TMP DP  RH WIND       PRES   REMARKS
JACKSON        CLOUDY     8   3  80 SW7       30.41R WCI  -3
LAMBERTVILLE   FLURRIES   6   0  75 SW6       30.45S WCI  -5
LANSING        CLOUDY    13  10  88 SW8       30.42R WCI   2
LAPEER         LGT SNOW  17  14  87 NW5       30.38R WCI  10
MASON          LGT SNOW  12   6  77 CALM      30.41S
MONROE         MOCLDY     6   0  73 MISG      30.44R HAZE
MT. CLEMENS    LGT SNOW  17  14  88 W9        30.39R FOG     WCI   6
PONTIAC        LGT SNOW  14  11  87 W10       30.37R FOG     WCI   1
PORT HOPE        N/A     20  13  74 N9        30.37R WCI   9
PORT HURON     LGT SNOW  18  12  79 W3        30.38R
TRI CITIES     CLOUDY    20  12  71 CALM      30.41R
MIDLAND        CLOUDY    20  10  66 NW3       30.40S
TROY           LGT SNOW  18  13  82 W7        30.41R WCI   8
SAGINAW HB     CLOUDY    19  16  86 CALM      30.40R
$$
MIZ043>046-050>051-056>058-064>065-071>073-077>080-170000-
SOUTHWEST LOWER MICHIGAN

CITY           SKY/WX    TMP DP  RH WIND       PRES   REMARKS
BATTLE CREEK   CLOUDY    10   4  76 SW7       30.43R HAZE    WCI  -1
BENTON HARBOR  CLOUDY    15   6  67 S6        30.46R WCI   6
BIG RAPIDS     CLOUDY    18   7  61 CALM      30.39S
COLDWATER      LGT SNOW   5   1  81 SW6       30.44R WCI  -5
FREMONT        MOCLDY    17   2  53 NW6       30.42R WCI   8
HOLLAND        FAIR      14  11  87 CALM      30.43R
GRAND RAPIDS   FLURRIES  13   8  81 W9        30.42R WCI   1
IONIA          CLOUDY    11   6  82 SW8       30.40S WCI  -1
KALAMAZOO      CLOUDY    12   4  70 SW7       30.44R WCI   1
LUDINGTON      FLURRIES  19  10  68 NE3       30.45R
MARSHALL       CLOUDY     8   3  80 SW3       30.42S
MOUNT PLEASANT FAIR      19   8  62 NW3       30.40R
MUSKEGON       FLURRIES  22   9  57 N14       30.44R WCI   9
SOUTH HAVEN    CLOUDY    16   7  69 S3        30.45S
$$
MIZ016>042-170000-
NORTHERN LOWER MICHIGAN

CITY           SKY/WX    TMP DP  RH WIND       PRES   REMARKS
ALPENA         CLOUDY    13   7  77 W5        30.41S WCI   5
BEAVER ISLAND  CLOUDY    17   8  68 CALM      30.43S
BELLAIRE       FAIR      12   6  77 CALM      30.45R
CADILLAC       FAIR      13   4  69 NW3       30.37R
CHARLEVOIX     FAIR      16   8  69 N6        30.46S WCI   8
FRANKFORT      MOCLDY    20  10  64 CALM      30.45S
GAYLORD        FAIR      11   6  81 NW5       30.36S WCI   3
GRAYLING       FAIR       9   2  73 NW3       30.38S
HARBOR SPRINGS FAIR      12   3  66 CALM      30.42S
HOUGHTON LAKE  CLOUDY    14   5  67 NW6       30.38R WCI   5
MANISTEE       FLURRIES  18   8  65 N6        30.45S WCI  10
OSCODA         FAIR      11   5  78 N5        30.41R WCI   3
PELLSTON       FAIR       9   3  77 W3        30.42S
ROGERS CITY    LGT SNOW  14   9  79 W5        30.42S WCI   6
TRAVERSE CITY  FAIR      18   7  62 N8        30.43R WCI   8
$$
MIZ007>008-015-170000-
EASTERN UPPER MICHIGAN

CITY           SKY/WX    TMP DP  RH WIND       PRES   REMARKS
KINROSS        FAIR       8   2  76 W5        30.40S WCI   0
MACKINAC ISLAN FAIR      13   4  65 NW7       30.40S WCI   3
NEWBERRY       FAIR      10   9  95 CALM      30.39F
S. S. MARIE    FAIR      11   2  67 W3        30.39S
MUNISING         N/A     20  16  84 N5        30.42S WCI  13
$$
MIZ004>006-011>014-085-170000-
CENTRAL UPPER MICHIGAN

CITY           SKY/WX    TMP DP  RH WIND       PRES   REMARKS
MANISTIQUE     LGT SNOW  12  11  95 CALM      30.42F
ESCANABA       LGT SNOW  16  10  79 CALM      30.45S FOG
MENOMINEE      CLOUDY    14  11  87 CALM      30.47S
SAWYER-GWINN   PTCLDY    12   9  85 NW7       30.40F WCI   2
$$
MIZ001>003-009>011-084-170000-
WESTERN UPPER MICHIGAN

CITY           SKY/WX    TMP DP  RH WIND       PRES   REMARKS
IRON MOUNTAIN  FAIR      14   6  70 NW8       30.41S WCI   3
HOUGHTON       LGT SNOW  18  11  74 W10       30.38F WCI   6
COPPER HARBOR    N/A     17  11  77 W5        30.40F WCI  10
IRONWOOD       FAIR      10   5  80 W8        30.45F WCI  -2
$$

ABBREVIATIONS USED IN REMARKS
   TC - TEMPERATURE IN CELSIUS
  WCI - WIND CHILL INDEX
   HX - HEAT INDEX
  VSB - VISIBILITY




USA.gov is the U.S. government's official web portal to all federal, state and local government web resources and services.